• MPC Preparation (Info)

  • MPEC 2023-R39 : 2023 RS

    The following Minor Planet Electronic Circular may be linked-to from your own Web pages, but must not otherwise be redistributed electronically.

    A form allowing access to any MPEC is at the bottom of this page.


    Read MPEC 2023-R38 Read MPEC 2023-R40


    M.P.E.C. 2023-R39                             Issued 2023 September 7, 20:21 UT
    
         The Minor Planet Electronic Circulars contain information on unusual
             minor planets, routine data on comets and natural satellites,
             and occasional editorial announcements.  They are published
        on behalf of Division F of the International Astronomical Union by the
              Minor Planet Center, Smithsonian Astrophysical Observatory,
                              Cambridge, MA 02138, U.S.A.
    			  
                 Prepared using the Tamkin Foundation Computer Network
    
                                  MPC@CFA.HARVARD.EDU
                URL https://www.minorplanetcenter.net/    ISSN 1523-6714
    
                                     2023 RS                                 
    
    
    Observations:
         K23R00S*1C2023 09 07.18057221 21 10.560-10 36 04.20         20.15GVER039G96
         K23R00S 1C2023 09 07.18570021 21 04.540-10 35 10.90               VER039G96
         K23R00S 1C2023 09 07.19083021 20 58.450-10 34 16.00         20.79GVER039G96
         K23R00S 1C2023 09 07.19595621 20 51.890-10 33 17.60         20.42GVER039G96
         K23R00S 1C2023 09 07.26776821 18 58.586-10 15 41.44         19.68GVER039G96
         K23R00S 1C2023 09 07.26818321 18 57.776-10 15 33.08         19.97GVER039G96
         K23R00S 1C2023 09 07.26859821 18 56.992-10 15 25.52         19.78GVER039G96
         K23R00S 1C2023 09 07.26901221 18 56.221-10 15 17.78         19.66GVER039G96
         K23R00S 1C2023 09 07.27174421 18 50.972-10 14 25.58         19.57GVER039G96
         K23R00S 1C2023 09 07.27190421 18 50.666-10 14 22.42         19.70GVER039G96
         K23R00S 1C2023 09 07.27206521 18 50.335-10 14 19.36         19.76GVER039G96
         K23R00S 1C2023 09 07.27222621 18 50.022-10 14 16.08         19.75GVER039G96
         K23R00S 0C2023 09 07.28512321 17 53.557-10 07 38.08         19.7 GVER039V37
         K23R00S 0C2023 09 07.28702321 17 49.505-10 06 55.11         19.2 GVER039V37
         K23R00S 0C2023 09 07.28892521 17 45.463-10 06 11.88         19.7 GVER039V37
         K23R00S KC2023 09 07.28926221 18 15.368-10 08 21.84         19.43GVER039V06
         K23R00S KC2023 09 07.28998421 18 13.856-10 08 05.75         19.32GVER039V06
         K23R00S KC2023 09 07.29070621 18 12.323-10 07 49.80         19.51GVER039V06
         K23R00S 0C2023 09 07.29082421 17 41.386-10 05 28.26         19.4 GVER039V37
         K23R00S KC2023 09 07.29142921 18 10.786-10 07 33.46         19.58GVER039V06
         K23R00S 1C2023 09 07.29265921 18 08.449-10 07 08.15         19.59GVER039G96
         K23R00S 1C2023 09 07.29281921 18 08.111-10 07 04.37         19.71GVER039G96
         K23R00S 1C2023 09 07.29297921 18 07.762-10 07 00.84         19.80GVER039G96
         K23R00S 1C2023 09 07.29314021 18 07.412-10 06 57.10         19.68GVER039G96
         K23R00S 1C2023 09 07.37305221 14 42.292-09 24 54.83         18.83GVER039G96
         K23R00S 1C2023 09 07.37321221 14 41.849-09 24 47.63         19.16GVER039G96
         K23R00S 1C2023 09 07.37337221 14 41.316-09 24 41.33         19.13GVER039G96
         K23R00S 1C2023 09 07.37353221 14 40.826-09 24 34.60         19.07GVER039G96
         K23R00S 9C2023 09 07.48376621 08 43.144-06 33 02.89         17.5 GVER039F65
         K23R00S 9C2023 09 07.48852621 07 56.357-06 19 07.19         17.8 GVER039F65
         K23R00S 9C2023 09 07.49249921 07 14.708-06 06 34.84         17.4 GVER039F65
         K23R00S 9C2023 09 07.49745721 06 19.027-05 49 37.60         17.4 GVER039F65
         K23R00S 9C2023 09 07.50214821 05 22.047-05 32 04.25         17.4 GVER039F65
    
    Observer details:
    F65 Haleakala-Faulkes Telescope North.  Observers T. Santana-Ros, M. Micheli,
        F. Ocana, L. Conversi.  Measurer M. Micheli.  2.0-m f/10 reflector +
        CCD.
    G96 Mt. Lemmon Survey.  Observer A. R. Gibbs.  Measurers E. J. Christensen, D.
        Fay, J. B. Fazekas, D. C. Fuls, A. R. Gibbs, A. D. Grauer, H. Groeller, J.
        K. Hogan, R. A. Kowalski, S. M. Larson, G. J. Leonard, D. Rankin, R. L.
        Seaman, A. Serrano, F. C. Shelly, K. W. Wierzchos.  1.5-m reflector + 10K
        CCD.
    V06 Catalina Sky Survey-Kuiper.  Observer J. B. Fazekas.  Measurers E. J.
        Christensen, D. Fay, J. B. Fazekas, D. C. Fuls, A. R. Gibbs, A. D. Grauer,
        H. Groeller, J. K. Hogan, R. A. Kowalski, S. M. Larson, G. J. Leonard, D.
        Rankin, R. L. Seaman, A. Serrano, F. C. Shelly, K. W. Wierzchos.  1.55-m
        reflector + 1K CCD.
    V37 McDonald Observatory-LCO ELP.  Observers M. Micheli, T. Santana-Ros, F.
        Ocana, L. Conversi.  Measurer M. Micheli.  1.0-m reflector + CCD.
    
    Orbital elements:
    2023 RS                                                  Earth MOID = 0.0001 AU
    Epoch 2023 Sept. 13.0 TT = JDT 2460200.5                Bell                    
    M 339.22430              (2000.0)            P               Q                  
    n   0.55449939     Peri.  234.66046     +0.77314210     -0.63251946             
    a   1.4673555      Node   164.40200     +0.62348506     +0.74452151             
    e   0.3953033      Incl.    9.97754     +0.11626552     +0.21355761             
    P   1.78           H   32.32          G   0.15           U   7                  
    Residuals in seconds of arc
    230907 G96  0.4-  0.7+    230907 G96  0.0   0.1+    230907 G96  0.1-  0.1-
    230907 G96  1.0-  0.6+    230907 V37  0.0   0.2-    230907 G96  0.2-  0.0
    230907 G96  0.5+  0.2+    230907 V37  0.4-  0.2+    230907 G96  0.6-  0.2-
    230907 G96  1.7-  1.4+    230907 V37  0.2-  0.2+    230907 G96  0.1+  0.0
    230907 G96  0.2+  0.1-    230907 V06  0.1-  0.0     230907 G96  0.5-  0.6-
    230907 G96  0.1-  0.5+    230907 V06  0.0   0.2+    230907 G96  0.5-  0.8-
    230907 G96  0.1-  0.2+    230907 V06  0.1-  0.1+    230907 F65  0.2+  0.4-
    230907 G96  0.2+  0.1+    230907 V37  0.1-  0.0     230907 F65  0.2+  0.5-
    230907 G96  0.2+  0.1-    230907 V06  0.3-  0.3+    230907 F65  0.0   0.3-
    230907 G96  0.3+  0.0     230907 G96  0.1-  0.1-    230907 F65  0.2-  0.1-
    230907 G96  0.0   0.1-    230907 G96  0.0   0.0     230907 F65  0.4-  0.1+
    
    Ephemeris:
    2023 RS                  a,e,i = 1.47, 0.40, 10                  q = 0.8873
    Date    TT    R. A. (2000) Decl.     Delta      r    Elong.  Phase     V
    2023 08 08    21 25 56.7 -12 15 05   0.1975  1.2108   174.3     4.8    29.6
    ...
    2023 08 23    21 23 10.7 -12 12 48   0.09554 1.1055   169.6     9.5    28.1
    ...
    2023 08 31    21 21 39.5 -12 12 37   0.04599 1.0534   161.7    17.5    26.7
    ...
    2023 09 06    21 21 00.2 -11 48 23   0.0097271.0171   155.9    23.9    23.4
    2023 09 07    21 20 33.2 -10 56 45   0.0036961.0113   154.9    25.0    21.3
    2023 09 08    09 06 47.5 -16 13 06   0.0024641.0057    36.5   143.4    26.6
    ...
    2023 09 14    09 06 22.5 -18 05 53   0.03854 0.9773    40.6   137.9    31.8
    ...
    2023 09 22    09 08 57.2 -17 51 40   0.08698 0.9441    44.6   131.6    32.8
    ...
    2023 10 07    09 20 42.5 -16 57 17   0.1797  0.9006    52.1   118.8    33.1
    
    M. P. C. Staff               (C) Copyright 2023 MPC           M.P.E.C. 2023-R39
    


    Read MPEC 2023-R38 Read MPEC 2023-R40


    MPEC number:

    Enter an MPEC number in one of the following forms:

    • 1997-B01 (the full form)
    • J97B01 (the packed version of the full form)
    • B01 (the abbreviated form)